Flag for Germany Weather past 2 weeks in Tönisvorst, North Rhine-Westphalia, Germany

Now
37 °F

Passing clouds.


Feels Like: 32 °F
Forecast: 35 / 41 °F
Wind: 7 mph from Southwest

Location: Monchengladbach Airport

Current Time: Jan 28, 2015 at 8:03:55 PM

Latest Report: Jan 28, 2015 at 7:20 PM


Visibility: N/A

Pressure: 29.47 "Hg

Humidity: 93%

Dew point: 36 °F

Location of TönisvorstLocation

Historic Weather in Tönisvorst — Graph

°F

Tönisvorst temperature yesterday

Maximum temperature yesterday: 43 °F (at 2:20 PM)
Minimum temperature yesterday: 37 °F (at 7:50 AM)
Average temperature yesterday: 40 °F

Past Weeks' High & Low Weather Summary

 TemperatureHumidityPressure
High52 °F (Jan 15, 1:20 PM)100% (Jan 17, 8:20 AM)30.42 "Hg (Jan 17, 8:20 AM)
Low28 °F (Jan 19, 8:20 AM)61% (Jan 17, 2:20 PM)29.39 "Hg (Jan 28, 5:50 PM)
Average38 °F84%29.96 "Hg
* Reported Jan 13 6:20 PM — Jan 28 6:50 PM, Tönisvorst, Weather by CustomWeather, © 2014

Note: Actual official high and low records may vary slightly from our data, if they occured in-between our weather recording intervals... More about our weather records

Advertising

Tönisvorst weather history for previous 24 hours

 ConditionsComfort  
Time TempWeatherWind HumidityBarometerVisibility
6:50 PM
Jan 28
37 °FLight rain. Passing clouds.16 mph93%29.47 "Hg4 mi
6:20 PM41 °FRain. Passing clouds.23 mph93%29.45 "Hg3 mi
5:50 PM45 °FRain. Passing clouds.22 mph87%29.39 "Hg3 mi
5:20 PM43 °FLight rain. Passing clouds.16 mph93%29.42 "Hg4 mi
4:50 PM43 °FLight rain. Fog.20 mph87%29.45 "Hg3 mi
4:20 PM43 °FPassing clouds.18 mph87%29.45 "HgN/A
3:50 PM43 °FLight rain. Passing clouds.15 mph87%29.50 "HgN/A
3:20 PM43 °FLight rain. Fog.20 mph81%29.50 "Hg2 mi
2:50 PM45 °FPassing clouds.18 mph71%29.53 "HgN/A
2:20 PM45 °FPassing clouds.18 mph71%29.59 "HgN/A
1:50 PM45 °FPassing clouds.17 mph76%29.62 "HgN/A
1:20 PM45 °FPassing clouds.17 mph76%29.68 "HgN/A
12:50 PM45 °FPassing clouds.17 mph76%29.68 "HgN/A
12:20 PM45 °FPartly cloudy.20 mph76%29.71 "HgN/A
11:50 AM45 °FPassing clouds.17 mph76%29.77 "HgN/A
11:20 AM43 °FPassing clouds.14 mph81%29.80 "HgN/A
10:50 AM43 °FPassing clouds.9 mph81%29.83 "HgN/A
10:20 AM41 °FPassing clouds.10 mph87%29.83 "HgN/A
9:50 AM41 °FPassing clouds.10 mph87%29.89 "HgN/A
9:20 AM41 °FPassing clouds.10 mph87%29.89 "HgN/A
8:50 AM41 °FLight rain. Passing clouds.9 mph87%29.92 "Hg5 mi
8:20 AM41 °FBroken clouds.9 mph87%29.92 "HgN/A
7:50 AM41 °FPartly sunny.10 mph87%29.95 "HgN/A
Weather by CustomWeather, © 2014

See weather overviewHow to use our weather pages